SL-16 R/B, 31793

Orbit data source: Space-Track

SL-16 R/B, 31793 is space debris in LEO originally from a launch on Fri, 29 Jun 2007 UTC launched from the Tyuratam Missile And Space Complex (TTMTR). Debris objects in space refer to the collection of defunct objects orbiting the Earth. Examples of debris include non-operational satellites, rocket bodies, and fragments generated from explosions, collisions, or faulty payload assembly.

Loading next visibility...
Identifier
31793, 2007-029B
Orbit
LEO
Country
Flag of CISCIS
Related business
Manufacturer
Yuzhnoe
Mission
Spacecraft
Bus & Motor
11S772, Unknown motor
Mass
9,000 kg wet, 9,000 kg dry
Launch date (UTC)
2007-06-29 (19 years ago)
Launch vehicle
Unknown
Launch site
Tyuratam Missile And Space Complex (TTMTR)
Object type
Payload
Rocket body
Debris
Shape & HBR
Cyl, 5.2 m
Radar Cross Section
37.829 m², Large (>1 m²)

Expand to show TLE details & history
Last TLE update: 2 days ago

TLE from 2 days ago
0 SL-16 R/B
1 31793U 07029B   26171.35404384 -.00000012  00000-0  18759-4 0  9997
2 31793  70.9771 316.5706 0002390 262.9025 119.5421 14.14855736979893
Epoch: 2026-06-20T08:29Z
TLE epoch observation values (Epoch: 2026-06-20T08:29:49.387Z)
Latitude
21.19934°
Longitude
-71.811°
Altitude
845.746 km
Speed
7.431 km/s
True Right ascension
21h 36m 51s
True Declination
21° 05' 06"
Sunlit
Object was in daylight at epoch
Visualization orbit readout
Latitude
Unknown
Longitude
Unknown
Altitude
Unknown
Speed
Unknown
Apparent Right ascension
Unknown
Apparent Declination
Unknown
Sunlit
N/A
Visualization observer readout
Local Sidereal Time
00:51:11
Azimuth
Unknown
Elevation
Unknown
Doppler factor
Unknown
Orbital elements
Apogee altitude
842.456 km
Perigee altitude
839.005 km
Semi-major axis
7,218.867 km
Eccentricity
0.00024
Inclination
70.9771°
RAAN
316.5706°
Arg. of periapsis
262.9025°
True anomaly
119.56592°
Mean anomaly
119.5421°
Eccentric anomaly
119.55401°
Mean motion
3.53867 °/min
Orbital period
101.73 mins
BSTAR
0.000018759
Loading maneuver chart data...
Computing Atmospheric mass density...

Documentation

Showing up to 5 results
|